Tracking 35331 objects as of 15-Sep-2026
HD Live streaming from Space Station
objects crossing your sky now

STARLINK-1760


STARLINK-1760 is no longer on orbit
STARLINK-1760 is classified as:


NORAD ID: 46341
Int'l Code: 2020-062S
Launch date: September 3, 2020
Source: United States (US)
Launch site: AIR FORCE EASTERN TEST RANGE (AFETR)
Decay date: 2025-02-12
Your satellite tracking list
Your tracking list is empty




NASA's NSSDC Master Catalog

Two Line Element Set (TLE):
1 46341U 20062S   25043.07254750  .14226997  12447-4  46978-3 0  9991
2 46341  53.0286 271.0132 0005990 248.9383 285.1947 16.44382374246314
Source of the keplerian elements: AFSPC